2020 DD

Japanese version
Home page
Updated on March 7, 2020

---------------------------------------------------------------------

* Profile

Discovery Date February 16, 2020
Magnitude 18.0 mag
Discoverer Mt. Lemmon Survey

* Orbital Elements

Epoch 2020 May 31.0 TT = JDT 2459000.5                  Bell
M  17.37688              (2000.0)            P               Q
n   0.25422135     Peri.  139.82216     +0.39055885     +0.92038921
a   2.4679027      Node   153.15166     -0.85485291     +0.37011439
e   0.9528203      Incl.    2.36559     -0.34159960     +0.12609141
P   3.88           H   23.5           G   0.15           U   7

* Magnitudes Graph

        H = 23.5  G = 0.15

---------------------------------------------------------------------

The orbital elements are published on M.P.E.C. 2020-D24.
The magnitudes graphs are made with Comet for Windows.

---------------------------------------------------------------------

Copyright(C) Seiichi Yoshida (comet@aerith.net). All rights reserved.